Wind_Speed
97 94 89 89 89 85 86 84 84 85 81 76 77 75 73 71 71 71 69 69 65 63 59 59 56 59 66 65 68 69 66 58 57 52 57 55 55 59 57 54 58 54 52
83 84 86 86 90 88 87 91 91 87 87 82 81 81 80 77 74 77 78 76 71 68 65 64 62 60 63 63 62 60 65 66 60 62 60 56 58 62 63 63 64 60 60
76 76 78 82 87 87 86 91 94 98 91 89 87 85 84 83 84 84 81 79 76 76 74 67 65 55 61 62 66 63 67 69 70 72 67 66 61 62 64 64 64 60 59
69 69 70 73 76 77 74 79 85 93 98 99 96 92 91 90 88 86 85 84 81 82 79 76 70 66 69 68 66 68 65 71 80 76 70 63 65 62 65 68 68 69 64
58 61 63 67 70 73 73 76 81 89 96 103 105 102 97 95 92 92 91 89 86 85 83 78 74 75 73 72 66 66 77 71 71 81 79 69 64 62 62 65 71 73 67
52 56 57 58 60 64 69 73 78 84 87 90 95 97 103 102 99 97 95 93 92 89 85 82 79 76 75 72 70 65 76 75 70 72 74 71 65 66 70 68 72 73 68
45 48 50 52 58 62 65 68 72 76 75 77 80 85 90 95 97 96 97 97 96 92 88 85 83 79 77 77 72 64 68 77 73 72 78 77 70 74 76 73 77 81 78
37 39 42 47 51 55 58 61 63 65 68 70 72 76 80 84 88 90 91 90 89 86 87 87 85 84 82 76 72 66 71 81 80 82 82 87 80 83 80 79 81 83 83
31 35 37 38 41 47 49 52 55 59 62 63 66 69 72 75 78 80 83 83 78 78 82 82 83 79 78 74 67 66 71 73 79 81 86 87 91 91 88 85 86 87 88
16 22 31 34 35 38 41 44 48 51 52 53 56 59 62 64 67 67 69 68 67 72 75 78 77 75 75 71 62 67 71 75 81 86 87 89 93 96 99 95 97 96 99
9 16 22 28 30 30 31 34 37 39 42 40 43 46 49 49 51 52 54 56 59 65 68 71 68 71 70 67 65 66 67 67 67 74 84 82 86 90 95 97 92 93 97
6 10 18 20 21 24 25 24 24 25 27 29 31 35 37 39 42 45 48 51 54 57 59 60 60 61 66 66 69 69 73 74 75 80 82 84 90 93 95 97 98 99 96
12 4 7 11 17 18 19 18 18 18 18 17 19 25 27 28 32 35 38 42 45 48 52 56 59 65 69 72 74 74 76 76 81 84 87 91 94 96 99 101 102 103 103
12 20 13 10 10 5 10 21 24 22 18 15 15 20 23 25 27 31 34 37 40 43 48 54 58 61 64 64 72 80 85 88 89 91 96 100 103 106 107 108 107 107 110
10 7 23 11 28 15 16 11 11 2 7 13 14 19 20 25 27 28 32 36 41 43 48 53 59 64 68 73 75 80 84 89 98 106 110 111 113 115 116 118 118 118 120
10 6 14 12 9 15 21 17 16 16 17 14 14 16 22 28 31 34 39 40 45 49 54 59 63 67 72 79 83 87 92 96 100 106 111 114 116 119 121 123 123 126 128
15 13 9 7 7 9 15 17 22 23 24 26 26 28 31 34 37 38 41 46 50 55 61 64 68 72 78 82 88 95 99 103 110 115 116 117 117 119 123 125 125 125 125
15 13 8 1 4 10 13 14 16 19 23 34 37 38 37 38 42 47 49 51 53 58 63 65 71 77 82 86 90 95 97 104 108 111 114 115 118 119 122 125 126 124 127
17 16 14 11 9 8 8 10 12 14 19 22 25 29 31 36 39 41 43 47 50 54 60 67 74 79 88 95 101 105 108 106 114 118 120 120 122 124 124 123 125 123 120
16 15 15 16 17 19 20 21 22 24 25 27 31 34 37 42 44 46 51 53 56 63 66 70 75 81 85 96 107 114 118 119 124 126 130 133 132 131 131 127 122 115 113
22 23 23 23 24 25 26 27 29 30 32 35 37 39 42 44 49 54 50 54 63 70 75 79 82 88 99 107 114 118 116 122 121 118 109 106 107 105 105 108 109 104 105
22 24 26 27 27 28 29 30 31 34 36 38 41 45 50 51 51 55 57 59 61 66 70 77 79 92 99 98 100 106 103 95 89 83 80 79 79 83 86 86 86 87 91
22 23 25 27 28 29 31 32 33 34 37 40 43 43 46 51 54 61 67 68 68 66 70 75 79 85 94 95 97 84 85 82 76 72 70 68 68 68 70 73 76 76 75
30 29 29 30 31 32 35 36 36 38 40 40 41 46 47 53 58 62 61 65 67 72 74 81 84 88 94 95 86 79 78 75 69 67 66 64 61 59 59 61 62 64 66
36 37 38 38 37 38 39 41 43 44 47 47 49 55 56 56 64 66 66 67 73 73 76 79 79 81 88 89 83 79 74 71 66 64 61 58 57 54 52 53 54 55 57
44 46 47 47 46 46 47 49 51 52 53 56 58 61 64 65 68 67 69 73 77 80 78 80 81 82 85 86 83 79 73 65 63 62 59 52 49 50 48 48 49 49 51
Wind_Direction
256 255 255 255 256 254 253 251 248 246 247 250 252 254 254 255 256 260 260 259 259 256 257 260 255 259 260 261 262 259 259 260 262 259 259 264 266 266 261 261 267 261 269
252 251 250 250 252 252 251 251 250 248 248 251 253 253 255 256 256 257 258 259 260 263 263 259 261 263 256 262 265 265 253 254 254 255 259 265 268 265 264 261 265 262 269
250 249 247 247 247 247 245 246 246 247 248 249 253 253 253 255 255 255 259 260 261 261 262 264 261 258 252 258 263 267 261 249 245 253 257 261 261 266 261 262 266 265 268
251 249 246 245 245 245 244 245 246 247 245 247 248 250 250 250 253 255 258 260 260 260 262 263 263 261 256 266 268 270 262 257 250 250 257 253 258 262 257 261 263 265 267
247 247 244 244 244 244 241 239 240 240 241 242 243 247 249 250 253 254 256 257 259 260 261 263 264 264 264 266 266 264 270 264 264 255 250 248 258 256 261 259 262 260 261
246 245 243 240 240 240 240 237 237 239 239 239 242 244 246 248 250 252 253 255 256 259 259 261 265 266 268 270 267 259 265 265 263 257 246 250 254 257 257 262 259 258 257
242 242 241 236 236 237 237 236 236 239 241 241 242 242 243 245 247 249 250 251 254 257 258 261 264 266 270 271 268 266 257 264 259 253 245 244 251 255 255 259 256 257 258
240 238 237 236 235 237 238 237 237 237 237 236 236 237 240 242 243 245 248 249 252 253 255 258 262 265 267 268 265 262 255 255 255 253 249 249 250 252 260 262 256 257 257
229 229 227 230 233 232 231 230 231 232 233 235 236 237 239 240 242 244 246 247 249 251 254 258 260 262 263 263 263 257 253 251 253 258 255 249 252 255 254 255 255 256 260
231 230 225 222 223 225 226 227 228 230 232 234 235 236 237 239 241 243 244 245 247 249 251 253 257 260 259 257 255 255 255 254 250 251 252 250 250 254 256 259 261 262 261
207 209 217 223 222 224 227 227 228 230 231 233 235 237 239 243 245 246 246 246 247 249 251 252 253 254 253 252 251 253 253 251 250 254 255 250 252 253 257 257 257 261 262
200 192 198 204 217 224 225 228 228 226 232 233 236 240 239 241 243 244 244 246 246 248 249 250 251 247 247 249 244 244 247 250 248 249 250 250 251 253 258 260 260 263 263
92 134 183 196 199 215 225 227 233 236 231 234 239 244 244 243 244 243 244 245 245 246 247 247 245 248 246 251 245 241 243 247 249 250 251 250 253 255 258 259 260 261 261
96 102 100 102 102 217 216 230 229 227 235 251 253 248 251 255 254 252 253 251 248 249 248 247 246 253 258 258 252 248 246 244 247 249 251 252 253 255 256 258 259 261 263
75 80 140 155 131 163 166 163 143 19 296 270 255 246 265 261 264 265 261 258 255 255 258 259 260 257 254 254 254 254 255 255 252 251 251 252 254 255 255 255 257 259 262
74 54 192 185 177 183 194 191 187 202 206 226 246 245 252 253 259 262 265 265 266 264 264 261 261 264 266 266 267 266 264 264 261 259 258 258 260 262 262 262 262 262 263
79 70 62 92 173 239 236 239 245 249 240 249 249 252 254 255 264 273 278 273 269 264 266 271 274 275 276 275 273 272 271 271 271 271 271 271 272 270 270 268 266 265 263
45 47 50 60 249 246 258 266 264 263 264 253 257 266 270 271 274 278 282 281 281 279 277 279 278 279 280 281 280 278 275 272 272 273 273 273 272 273 271 269 269 269 267
357 356 353 345 340 330 312 299 294 291 284 282 279 281 281 281 282 283 286 287 290 289 287 285 288 286 285 285 283 284 286 288 289 288 287 287 281 278 276 271 269 266 265
322 319 315 310 307 303 303 306 304 301 296 292 288 286 286 286 287 285 284 285 279 280 281 282 284 282 282 281 281 285 289 290 289 288 288 284 282 279 280 278 275 270 266
307 302 302 301 297 295 293 288 287 284 282 280 278 278 279 279 276 280 278 282 281 278 280 283 286 280 281 281 284 287 289 289 286 282 280 280 278 276 274 272 271 270 266
299 297 295 294 291 285 280 279 279 276 273 272 271 270 269 271 275 273 275 282 282 287 286 287 290 292 291 292 295 298 293 292 291 289 284 280 274 272 271 270 268 265 263
296 294 290 286 284 282 278 279 276 274 272 271 270 271 268 268 276 275 276 285 287 293 296 299 296 296 297 300 301 304 302 301 298 294 291 286 280 274 270 267 266 264 262
290 287 282 280 281 281 281 280 281 284 282 280 279 284 286 282 284 285 293 297 300 305 304 305 311 310 306 304 308 311 309 306 301 299 297 292 285 279 273 268 264 261 257
289 288 289 285 281 278 277 279 282 282 284 289 290 292 295 294 292 292 299 304 310 311 310 308 311 311 310 312 316 316 314 310 305 304 300 294 289 283 276 270 265 260 257
283 285 286 286 284 285 285 286 289 291 292 293 297 297 298 297 300 303 301 306 314 311 308 310 315 313 312 315 320 321 317 312 307 307 304 299 291 285 278 271 265 259 254
Height
10625 10633 10642 10650 10654 10670 10680 10687 10694 10699 10705 10710 10715 10718 10724 10730 10736 10737 10741 10743 10747 10751 10755 10759 10760 10761 10761 10762 10765 10770 10776 10775 10776 10778 10779 10780 10782 10783 10782 10783 10785 10783 10782
10599 10607 10618 10628 10634 10641 10658 10668 10675 10682 10689 10696 10698 10704 10709 10715 10720 10722 10722 10727 10733 10736 10742 10746 10749 10751 10750 10751 10752 10755 10760 10762 10765 10766 10767 10769 10770 10770 10768 10770 10770 10771 10770
10577 10585 10595 10603 10607 10618 10630 10640 10653 10662 10673 10679 10681 10688 10693 10697 10701 10701 10706 10711 10716 10720 10725 10729 10734 10736 10738 10741 10742 10743 10744 10745 10746 10751 10754 10757 10758 10755 10756 10757 10757 10758 10757
10560 10567 10575 10584 10589 10598 10614 10626 10635 10645 10654 10659 10663 10665 10671 10679 10679 10686 10691 10695 10701 10705 10709 10713 10718 10725 10725 10727 10728 10727 10730 10731 10733 10735 10740 10742 10742 10742 10743 10744 10743 10744 10743
10542 10549 10557 10565 10573 10582 10592 10603 10609 10612 10620 10631 10635 10644 10655 10659 10666 10671 10675 10679 10685 10689 10695 10699 10702 10707 10709 10712 10715 10714 10710 10714 10715 10719 10723 10726 10729 10729 10730 10729 10728 10728 10727
10528 10533 10541 10549 10557 10566 10572 10579 10584 10589 10599 10610 10618 10629 10634 10642 10647 10650 10658 10663 10668 10673 10680 10684 10689 10691 10692 10695 10695 10699 10696 10696 10699 10703 10707 10710 10713 10714 10714 10713 10712 10712 10710
10516 10521 10529 10536 10541 10547 10554 10561 10567 10574 10585 10595 10603 10609 10615 10620 10628 10633 10637 10645 10651 10660 10665 10669 10671 10674 10674 10674 10675 10678 10680 10677 10681 10686 10688 10691 10694 10694 10694 10693 10693 10694 10691
10509 10515 10518 10523 10529 10535 10543 10550 10557 10563 10568 10573 10581 10588 10595 10601 10607 10613 10619 10629 10636 10643 10649 10651 10654 10656 10655 10656 10656 10659 10660 10660 10661 10664 10668 10673 10673 10674 10673 10673 10672 10673 10672
10499 10506 10511 10516 10522 10527 10532 10539 10546 10552 10558 10563 10569 10575 10581 10586 10592 10598 10604 10612 10619 10626 10630 10635 10634 10636 10636 10637 10637 10637 10643 10642 10642 10644 10647 10651 10653 10651 10651 10651 10653 10651 10652
10495 10501 10505 10510 10514 10520 10526 10532 10537 10543 10548 10553 10559 10564 10568 10574 10579 10586 10591 10598 10607 10609 10611 10614 10617 10617 10620 10620 10620 10621 10623 10624 10622 10623 10623 10624 10630 10631 10630 10631 10631 10631 10632
10493 10498 10503 10506 10511 10516 10521 10526 10532 10538 10543 10547 10551 10555 10562 10567 10574 10578 10581 10588 10591 10592 10596 10599 10602 10601 10603 10603 10605 10604 10604 10604 10604 10604 10604 10608 10609 10610 10608 10607 10609 10610 10609
10493 10496 10502 10504 10509 10515 10518 10523 10530 10535 10539 10542 10546 10549 10555 10559 10563 10567 10569 10573 10577 10577 10581 10584 10586 10587 10585 10586 10587 10587 10587 10587 10586 10585 10585 10586 10585 10587 10586 10586 10587 10586 10589
10498 10499 10501 10506 10511 10515 10519 10523 10527 10531 10535 10539 10540 10542 10546 10551 10554 10558 10561 10564 10566 10566 10568 10568 10569 10569 10569 10568 10569 10570 10568 10567 10566 10564 10564 10565 10563 10564 10562 10561 10560 10560 10562
10508 10508 10510 10510 10512 10515 10519 10522 10526 10529 10532 10534 10537 10540 10542 10545 10548 10551 10553 10555 10556 10556 10555 10555 10553 10553 10555 10555 10555 10553 10552 10549 10545 10543 10540 10539 10536 10536 10537 10536 10536 10536 10536
10514 10515 10515 10516 10518 10521 10523 10524 10527 10530 10530 10532 10535 10538 10538 10540 10542 10544 10545 10545 10545 10546 10546 10545 10543 10540 10537 10535 10533 10533 10532 10529 10525 10518 10513 10511 10508 10508 10508 10508 10510 10510 10509
10520 10521 10522 10522 10522 10524 10525 10527 10528 10529 10531 10531 10532 10535 10535 10536 10536 10537 10538 10538 10538 10537 10534 10532 10531 10530 10526 10522 10517 10515 10510 10504 10499 10494 10486 10484 10484 10481 10479 10479 10482 10485 10487
10523 10523 10523 10523 10524 10525 10525 10525 10526 10527 10527 10528 10528 10529 10529 10529 10528 10528 10528 10527 10526 10523 10520 10518 10516 10512 10506 10501 10495 10488 10482 10477 10467 10459 10455 10453 10451 10449 10447 10446 10448 10453 10458
10525 10525 10523 10523 10523 10523 10523 10524 10523 10523 10523 10522 10522 10522 10522 10521 10519 10517 10516 10513 10511 10508 10504 10501 10496 10490 10482 10473 10464 10455 10451 10441 10433 10427 10422 10419 10417 10413 10409 10406 10411 10417 10422
10527 10526 10525 10524 10523 10522 10522 10520 10519 10517 10517 10516 10515 10513 10511 10509 10508 10506 10503 10499 10494 10490 10485 10480 10473 10465 10453 10444 10431 10419 10408 10398 10391 10377 10368 10366 10367 10363 10361 10361 10366 10373 10383
10528 10526 10524 10522 10520 10518 10516 10513 10512 10510 10508 10507 10506 10504 10502 10499 10496 10493 10490 10485 10482 10475 10470 10459 10452 10439 10429 10414 10401 10388 10377 10370 10350 10337 10330 10318 10311 10305 10302 10302 10311 10326 10341
10524 10522 10520 10519 10517 10515 10512 10509 10507 10505 10503 10501 10498 10496 10493 10489 10484 10480 10477 10472 10465 10457 10451 10440 10427 10412 10399 10383 10370 10356 10350 10330 10318 10304 10291 10280 10272 10269 10262 10263 10270 10280 10287
10518 10516 10514 10511 10510 10508 10505 10502 10499 10497 10494 10490 10487 10484 10481 10476 10472 10465 10460 10455 10448 10439 10427 10416 10399 10381 10366 10351 10340 10330 10307 10288 10278 10265 10253 10245 10241 10235 10232 10231 10233 10237 10245
10508 10506 10504 10500 10496 10494 10491 10489 10487 10484 10481 10479 10474 10469 10465 10461 10457 10450 10443 10435 10426 10417 10405 10394 10380 10359 10340 10326 10310 10294 10273 10256 10245 10233 10221 10213 10209 10206 10204 10203 10203 10207 10217
10502 10499 10495 10491 10486 10483 10478 10474 10471 10467 10464 10461 10457 10452 10445 10439 10434 10428 10420 10412 10403 10392 10380 10368 10350 10331 10314 10303 10284 10265 10246 10231 10219 10206 10194 10186 10181 10177 10177 10177 10179 10183 10187
10491 10488 10485 10482 10477 10473 10468 10462 10458 10454 10450 10446 10440 10434 10427 10421 10413 10405 10399 10389 10379 10370 10359 10346 10331 10314 10291 10274 10257 10240 10224 10208 10194 10183 10173 10166 10158 10154 10152 10153 10155 10157 10163
10476 10473 10470 10466 10462 10459 10455 10450 10445 10440 10435 10428 10422 10416 10408 10403 10394 10386 10376 10368 10355 10344 10335 10321 10308 10291 10274 10255 10237 10219 10205 10191 10177 10164 10153 10148 10140 10132 10131 10132 10133 10136 10141